Location: Gokavaram
(16.9752°N, 81.0696°E)
Time: 20:52:09
(UTC+00:00)

ARGOS - Pass Details

Date: 15 May 2026
Orbit: 817 x 834 km, 98.5° (Epoch: 7 June)

Event Time Altitude Azimuth Distance (km) Brightness Sun altitude
Rises 22:51:43 0° 351° (N) 3,338 6.5 -16.8°
Reaches altitude 10° 22:54:32 10° 336° (NNW) 2,405 5.6 -16.2°
Maximum altitude 22:58:32 22° 287° (WNW) 1,711 4.4 -15.3°
Enters shadow 22:59:52 20° 266° (W) 1,802 4.4 -15.0°
